Location: Contre
(49.7477°N, 2.0963°E)
Time: 09:19:30
(UTC+00:00)

METEOR 2-5 DEB - Pass Details

Date: 27 February 2024
Orbit: 788 x 800 km, 81.2° (Epoch: 09 April)

Event Time Altitude Azimuth Distance (km) Brightness Sun altitude
Rises 18:22:14 0° 335° (NNW) 3,324 ? -9.2°
Reaches altitude 10° 18:25:19 10° 317° (NW) 2,390 ? -9.7°
Maximum altitude 18:28:51 18° 276° (W) 1,883 ? -10.3°
Drops below altitude 10° 18:32:23 10° 235° (SW) 2,382 ? -10.9°
Sets 18:35:28 0° 217° (SW) 3,308 ? -11.4°
